Skip Page Navigation
NASA JPL Caltech
NASA Logo - Jet Propulsion Laboratory + View the NASA Portal
+ Center for Near-Earth Object Studies
JPL Home Earth Solar System Stars & Galaxies Technology
JPL Solar System Dynamics
BODIES ORBITS EPHEMERIDES TOOLS PHYSICAL DATA DISCOVERY FAQ SITE MAP
IMPORTANT: The SSD Announcement email list is now available. Major changes are coming in the near future, including possible hostname and/or URL changes. To be notified of such changes, subscribe to this email list.

Please visit this page for more details.


JPL Small-Body Database Browser
Search: [ help ]  
447446 (2006 EC32)
Classification: Main-belt Asteroid          SPK-ID: 2447446
Ephemeris | Orbit Diagram | Orbital Elements | Mission Design | Physical Parameters | Discovery Circumstances ]

[ show orbit diagram ]
Orbital Elements at Epoch 2458600.5 (2019-Apr-27.0) TDB
Reference: JPL 9 (heliocentric ecliptic J2000)
 Element Value Uncertainty (1-sigma)   Units 
e .07568605883904331 1.4411e-07  
a 2.386466931403679 2.7499e-08 au
q 2.205844654816028 3.5051e-07 au
i 5.042871597902592 1.822e-05 deg
node 186.8216708283447 8.479e-05 deg
peri 301.1569885053381 0.0001417 deg
M 237.5856867349592 0.00010737 deg
tp 2459058.390104372033
(2020-Jul-27.89010437)
0.00040136 TDB
period 1346.578134348014
3.69
2.3274e-05
6.372e-08
d
yr
n .2673443083748755 4.6208e-09 deg/d
Q 2.567089207991329 2.958e-08 au
  Orbit Determination Parameters
   # obs. used (total)      64  
   data-arc span      4513 days (12.36 yr)  
   first obs. used      2004-10-15  
   last obs. used      2017-02-22  
   planetary ephem.      DE431  
   SB-pert. ephem.      SB431-N16  
   condition code      0  
   norm. resid. RMS      .80119  
   source      ORB  
   producer      Otto Matic  
   solution date      2017-Apr-09 11:39:25  

Additional Information
 Earth MOID = 1.22577 au 
 Jupiter MOID = 2.46363 au 
 T_jup = 3.526 
[ show covariance matrix ]

Ephemeris | Orbit Diagram | Orbital Elements | Mission Design | Physical Parameters | Discovery Circumstances ]

Physical Parameter Table
Parameter Symbol Value Units Sigma Reference Notes
absolute magnitude H 18.3   n/a MPO357073  

447446 (2006 EC32)          Discovered 2006-Mar-03 by Mt. Lemmon Survey at Mount Lemmon
Reference: Last Updated: 2015-10-28
Ephemeris | Orbit Diagram | Orbital Elements | Mission Design | Physical Parameters | Discovery Circumstances ]
ABOUT SSD CREDITS/AWARDS PRIVACY/COPYRIGHT GLOSSARY LINKS
FirstGov
(server date/time)  
NASA Home Page
Site Manager:   Ryan S. Park
Webmaster  Alan B. Chamberlin